Tracking 29892 objects as of 21-Nov-2024
HD Live streaming from Space Station
objects crossing your sky now

COSMOS 2009

Track COSMOS 2009 now!
10-day predictions
COSMOS 2009 is classified as:


NORAD ID: 19903
Int'l Code: 1989-025B
Perigee: 1,415.0 km
Apogee: 1,478.8 km
Inclination: 74.0 °
Period: 114.7 minutes
Semi major axis: 7817 km
RCS: 0.6989 m2 (medium)
Launch date: March 24, 1989
Source: Commonwealth of Independent States (former USSR) (CIS)
Launch site: PLESETSK MISSILE AND SPACE COMPLEX (PKMTR)
Your satellite tracking list
Your tracking list is empty




NASA's NSSDC Master Catalog

Two Line Element Set (TLE):
1 19903U 89025B   24325.56026913 -.00000017  00000-0 -41216-5 0  9993
2 19903  74.0073 155.4642 0040832 143.0508 246.9321 12.55935552634945
Source of the keplerian elements: AFSPC